This demonstration page uses our WeatherBlox Daily Observations layout. Learn more.

Left ArrowRight Arrow

47.50024, -111.30081

Hourly Observations for January 18, 2020

Temp ( °F °C ) Dew Point ( °F °C ) Humidity (%) Winds ( mph kmh ) Pressure ( in mb ) Visibility ( mi km ) Precip ( " mm )
12:53 am 00:53 Cloudy -4 -20 -11 -23.9 71 71 ENE 7 11 30.50 1033 10 16 0.00 0.00
1:53 am 01:53 Cloudy -5 -20.6 -12 -24.4 72 72 ENE 9 15 30.52 1034 10 16 0.00 0.00
2:53 am 02:53 Cloudy -7 -21.7 -14 -25.6 71 71 ENE 8 13 30.54 1034 10 16 0.00 0.00
3:53 am 03:53 Cloudy -6 -21.1 -14 -25.6 67 67 NE 9 15 30.55 1035 10 16 0.00 0.00
4:53 am 04:53 Cloudy -5 -20.6 -14 -25.6 64 64 NE 6 9 30.57 1035 10 16 0.00 0.00
5:53 am 05:53 Clear -7 -21.7 -15 -26.1 68 68 Calm 30.60 1036 10 16 0.00 0.00
6:53 am 06:53 Clear -9 -22.8 -16 -26.7 71 71 NNE 5 7 30.61 1037 10 16 0.00 0.00
7:53 am 07:53 Clear -10 -23.3 -16 -26.7 74 74 Calm 30.63 1037 10 16 0.00 0.00
8:53 am 08:53 Sunny -8 -22.2 -15 -26.1 71 71 ESE 3 6 30.63 1037 10 16 0.00 0.00
9:53 am 09:53 Sunny -3 -19.4 -13 -25 61 61 Calm 30.63 1037 10 16 0.00 0.00
10:53 am 10:53 Sunny -1 -18.3 -13 -25 56 56 Calm 30.64 1038 10 16 0.00 0.00
11:53 am 11:53 Sunny 0 -17.8 -11 -23.9 59 59 Calm 30.62 1037 10 16 0.00 0.00
12:53 pm 12:53 Mostly Cloudy 2 -16.7 -8 -22.2 63 63 Calm 30.60 1036 10 16 0.00 0.00
1:53 pm 13:53 Sunny 6 -14.4 -5 -20.6 60 60 Calm 30.56 1035 10 16 0.00 0.00
2:53 pm 14:53 Sunny 7 -13.9 -4 -20 60 60 E 6 9 30.54 1034 10 16 0.00 0.00
3:53 pm 15:53 Sunny 7 -13.9 -4 -20 60 60 E 5 7 30.55 1035 10 16 0.00 0.00
4:53 pm 16:53 Partly Cloudy 8 -13.3 -3 -19.4 60 60 E 5 7 30.55 1034 10 16 0.00 0.00
5:53 pm 17:53 Cloudy 6 -14.4 -3 -19.4 66 66 ESE 7 11 30.56 1035 10 16 0.00 0.00
6:53 pm 18:53 Cloudy 6 -14.4 -4 -20 63 63 ESE 7 11 30.56 1035 10 16 0.00 0.00
7:53 pm 19:53 Cloudy 7 -13.9 -3 -19.4 63 63 Calm 30.57 1035 10 16 0.00 0.00
8:53 pm 20:53 Cloudy 8 -13.3 -1 -18.3 66 66 Calm 30.57 1035 10 16 0.00 0.00
9:53 pm 21:53 Cloudy 11 -11.7 3 -16.1 70 70 Calm 30.55 1035 10 16 0.00 0.00
10:53 pm 22:53 Partly Cloudy 14 -10 6 -14.4 71 71 SSW 12 19 30.51 1033 10 16 0.00 0.00
11:53 pm 23:53 Clear 22 -5.6 13 -10.6 68 68 SW 17 28 30.50 1033 10 16 0.00 0.00

Powered by AerisWeather